This is the latest recevied weather packets stored in our database for station/object WD7OO. If no packets are shown the sender has not sent any weather packets the latest 1 day(s).
| Time | Temp. | Humidity | Pressure | Rain* | Wind** | Luminosity | Snow |
|---|---|---|---|---|---|---|---|
| 1778038723 | 8.33° C | 85% | 1010.1 hPa | 0 mm | - | 0 W/m² | - |
| 1778038117 | 8.33° C | 84% | 1010.1 hPa | 0 mm | - | 0 W/m² | - |
| 1778037510 | 8.33° C | 83% | 1010.1 hPa | 0 mm | - | 0 W/m² | - |
| 1778037208 | 8.33° C | 84% | 1010.2 hPa | 0 mm | - | 0 W/m² | - |
| 1778036905 | 8.33° C | 80% | 1010.4 hPa | 0 mm | - | 0 W/m² | - |
| 1778036603 | 8.33° C | 77% | 1010.4 hPa | 0 mm | - | 0 W/m² | - |
| 1778036300 | 8.33° C | 77% | 1010.1 hPa | 0 mm | - | 0 W/m² | - |
| 1778035996 | 8.33° C | 80% | 1010.2 hPa | 0 mm | - | 0 W/m² | - |
| 1778035390 | 8.33° C | 77% | 1010.1 hPa | 0 mm | - | 0 W/m² | - |
| 1778035086 | 8.33° C | 79% | 1009.9 hPa | 0 mm | - | 0 W/m² | - |
| 1778034480 | 8.33° C | 80% | 1009.9 hPa | 0 mm | - | 0 W/m² | - |
| 1778034178 | 8.89° C | 80% | 1010 hPa | 0 mm | - | 0 W/m² | - |
| 1778033875 | 8.89° C | 80% | 1010.1 hPa | 0 mm | - | 0 W/m² | - |
| 1778033572 | 8.89° C | 78% | 1010 hPa | 0 mm | - | 0 W/m² | - |
| 1778033269 | 8.89° C | 76% | 1009.7 hPa | 0 mm | - | 0 W/m² | - |
| 1778032664 | 8.89° C | 79% | 1010.1 hPa | 0 mm | - | 0 W/m² | - |
| 1778031755 | 8.89° C | 76% | 1009.4 hPa | 0 mm | - | 0 W/m² | - |
| 1778031452 | 8.89° C | 73% | 1009.3 hPa | 0 mm | - | 0 W/m² | - |
| 1778031149 | 8.89° C | 73% | 1009.6 hPa | 0 mm | - | 0 W/m² | - |
| 1778030543 | 9.44° C | 75% | 1009.4 hPa | 0 mm | - | 0 W/m² | - |
| 1778030240 | 9.44° C | 76% | 1009.2 hPa | 0 mm | - | 0 W/m² | - |
| 1778029936 | 9.44° C | 77% | 1009.4 hPa | 0 mm | - | 0 W/m² | - |
| 1778029029 | 9.44° C | 75% | 1009.2 hPa | 0 mm | - | 0 W/m² | - |
| 1778028421 | 10° C | 72% | 1009.1 hPa | 0 mm | - | 0 W/m² | - |
| 1778027815 | 10° C | 69% | 1008.9 hPa | 0 mm | - | 1 W/m² | - |
* Rain latest hour (hover to see other rain measurements)
** Current wind speed in m/s (hover to see current wind gust speed)